Location: *
(40.7765°S, 106.5327°E)
Time: 14:59:31
(UTC+00:00)

Cosmos 724 - Pass Details

Date: 26 May 2022
Orbit: 863 x 931 km, 65.6° (Epoch: 04 July)

Event Time Altitude Azimuth Distance (km) Brightness Sun altitude
Rises 10:32:30 0° 333° (NNW) 3,538 8.2 -10.3°
Reaches altitude 10° 10:34:59 10° 333° (NNW) 2,612 7.5 -10.8°
Maximum altitude 10:41:06 85° 60° (ENE) 943 4.4 -11.9°
Drops below altitude 10° 10:47:21 10° 148° (SSE) 2,667 6.4 -13.0°
Enters shadow 10:47:46 - 148° (SSE) 2,822 6.5 -13.1°
